• Join FlightAware (Why Join?)
  • Login
  • US Flag 
07:54PM EST


 

Airport Tracker/Info


-or-


 

Live Flight TrackerFlight Track Log ✈ DAL5996 ✈ 26-Apr-2013 ✈ KDFW - KDTW

Flight Track Log - Related Links

Times and Time Zones

All times are in EDT time to prevent confusion due to time zone crossing. See the DAL5996 flight status page for this flight to view local times or setup timezone preferences in your user account.

Time Position Orientation Groundspeed Altitude Reporting Facility
EDT Latitude Longitude Course Direction KTS MPH feet Rate Location/Type
06:41AM 32.8500 -97.0167 64° Northeast 174 200 3,000  Level Dallas / Fort Worth TRACON
06:42AM 32.8000 -96.9833 151° Southeast 255 293 5,100 2,350 Climbing Dallas / Fort Worth TRACON
06:43AM 32.8901 -96.6233 52° Northeast  Level FlightAware Approximate
06:43AM 32.8500 -96.8833 59° Northeast 306 352 7,700  Level Dallas / Fort Worth TRACON
06:44AM 32.9637 -96.5080 57° Northeast  Level FlightAware Approximate
06:44AM 32.8833 -96.8000 65° Northeast 319 367 10,400  Level Dallas / Fort Worth TRACON
06:45AM 33.0294 -96.3859 57° Northeast  Level FlightAware Approximate
06:46AM 33.0866 -96.2585 64° Northeast  Level FlightAware Approximate
06:46AM 32.9747 -96.5864 63° Northeast 336 387 13,400  Level Fort Worth Center
06:47AM 33.0261 -96.4669 63° Northeast 361 415 16,000 2,200 Climbing Fort Worth Center
06:48AM 33.0711 -96.3647 62° Northeast 373 429 17,800 1,750 Climbing Fort Worth Center
06:49AM 33.1139 -96.2303 69° East 385 443 19,500 1,600 Climbing Fort Worth Center
06:50AM 33.1461 -96.1183 71° East 395 455 21,000 1,550 Climbing Fort Worth Center
06:51AM 33.1883 -95.9761 70° East 406 467 22,600 1,450 Climbing Fort Worth Center
06:52AM 33.2306 -95.8389 70° East 421 484 23,900 1,250 Climbing Fort Worth Center
06:53AM 33.2683 -95.7017 72° East 428 493 25,100 1,150 Climbing Fort Worth Center
06:54AM 33.3083 -95.5642 71° East 433 498 26,200 1,150 Climbing Fort Worth Center
06:55AM 33.3458 -95.4217 72° East 433 498 27,400 1,150 Climbing Fort Worth Center
06:56AM 33.3914 -95.2714 70° East 454 522 28,500 1,150 Climbing Fort Worth Center
06:57AM 33.4347 -95.1233 71° East 459 528 29,700 1,100 Climbing Fort Worth Center
06:58AM 33.4797 -94.9728 70° East 471 542 30,700 900 Climbing Fort Worth Center
06:59AM 33.5225 -94.8122 72° East 477 549 31,500 950 Climbing Fort Worth Center
07:00AM 33.5672 -94.6564 71° East 487 560 32,600 1,000 Climbing Fort Worth Center
07:01AM 33.6117 -94.4978 71° East 492 566 33,500 800 Climbing Fort Worth Center
07:02AM 33.6578 -94.3392 71° East 492 566 34,200 700 Climbing Fort Worth Center
07:03AM 33.7103 -94.1825 68° East 499 574 34,900 800 Climbing Fort Worth Center
07:04AM 33.7981 -94.0042 59° Northeast 491 565 36,000 711 Climbing Memphis Center
07:05AM 33.8692 -93.8594 59° Northeast 484 557 36,500 500 Climbing Memphis Center
07:06AM 33.9397 -93.7147 60° Northeast 489 563 37,000 250 Climbing Memphis Center
07:07AM 34.0103 -93.5719 59° Northeast 494 568 37,000  Level Memphis Center
07:08AM 34.0786 -93.4292 60° Northeast 494 568 37,000  Level Memphis Center
07:09AM 34.1511 -93.2836 59° Northeast 494 568 37,000  Level Memphis Center
07:10AM 34.2211 -93.1428 59° Northeast 494 568 37,000  Level Memphis Center
07:11AM 34.2908 -92.9994 59° Northeast 494 568 37,000  Level Memphis Center
07:12AM 34.3567 -92.8531 61° Northeast 494 568 37,000  Level Memphis Center
07:13AM 34.4261 -92.7089 60° Northeast 494 568 37,000  Level Memphis Center
07:14AM 34.4914 -92.5669 61° Northeast 494 568 37,000  Level Memphis Center
07:15AM 34.5606 -92.4278 59° Northeast 489 563 37,000  Level Memphis Center
07:16AM 34.6294 -92.2856 59° Northeast 489 563 37,000  Level Memphis Center
07:17AM 34.7025 -92.1481 57° Northeast 482 555 37,000  Level Memphis Center
07:18AM 34.7939 -92.0336 46° Northeast 472 543 37,000  Level Memphis Center
07:19AM 34.8828 -91.9192 47° Northeast 465 535 37,000  Level Memphis Center
07:20AM 34.9719 -91.8017 47° Northeast 465 535 37,000  Level Memphis Center
07:21AM 35.0608 -91.6864 47° Northeast 465 535 37,000  Level Memphis Center
07:22AM 35.1539 -91.5711 45° Northeast 465 535 37,000  Level Memphis Center
07:23AM 35.2425 -91.4528 47° Northeast 465 535 37,000  Level Memphis Center
07:24AM 35.3331 -91.3369 46° Northeast 465 535 37,000  Level Memphis Center
07:25AM 35.4217 -91.2183 47° Northeast 465 535 37,000  Level Memphis Center
07:26AM 35.5078 -91.1094 46° Northeast 473 544 37,000  Level Memphis Center
07:27AM 35.6003 -90.9903 46° Northeast 473 544 37,000  Level Memphis Center
07:28AM 35.6989 -90.8606 47° Northeast 473 544 37,000  Level Memphis Center
07:29AM 35.7786 -90.7536 47° Northeast 468 539 37,000  Level Memphis Center
07:30AM 35.8664 -90.6311 48° Northeast 468 539 37,000  Level Memphis Center
07:31AM 35.9606 -90.5083 47° Northeast 468 539 37,000  Level Memphis Center
07:32AM 36.0503 -90.3853 48° Northeast 473 544 37,000  Level Memphis Center
07:33AM 36.1419 -90.2619 47° Northeast 478 550 37,000  Level Memphis Center
07:34AM 36.2417 -90.1306 47° Northeast 473 544 37,000  Level Memphis Center
07:35AM 36.3311 -90.0092 48° Northeast 473 544 37,000  Level Memphis Center
07:36AM 36.4225 -89.8875 47° Northeast 473 544 37,000  Level Memphis Center
07:37AM 36.5094 -89.7658 48° Northeast 473 544 37,000  Level Memphis Center
07:38AM 36.6006 -89.6461 47° Northeast 473 544 37,000  Level Memphis Center
07:39AM 36.6894 -89.5236 48° Northeast 473 544 37,000  Level Memphis Center
07:40AM 36.7761 -89.4011 49° Northeast 473 544 37,000  Level Memphis Center
07:41AM 36.8625 -89.2833 47° Northeast 468 539 37,000  Level Memphis Center
07:42AM 36.9489 -89.1603 49° Northeast 468 539 37,000  Level Memphis Center
07:43AM 37.0353 -89.0419 48° Northeast 463 533 37,000  Level Memphis Center
07:44AM 37.1214 -88.9208 48° Northeast 463 533 37,000  Level Memphis Center
07:45AM 37.2075 -88.8022 48° Northeast 463 533 37,000  Level Memphis Center
07:46AM 37.2914 -88.6831 48° Northeast 463 533 37,000  Level Memphis Center
07:47AM 37.3692 -88.5772 47° Northeast 463 533 37,000  Level Memphis Center
07:50AM 37.5683 -88.2811 50° Northeast 464 534 37,000  Level Indianapolis Center
07:51AM 37.6572 -88.1519 49° Northeast 457 526 37,000  Level Indianapolis Center
07:52AM 37.7581 -88.0594 36° Northeast 442 509 37,000  Level Indianapolis Center
07:53AM 37.8556 -87.9822 32° Northeast 440 506 37,000  Level Indianapolis Center
07:54AM 37.9789 -87.8814 33° Northeast 437 503 37,000  Level Indianapolis Center
07:55AM 38.0844 -87.7986 32° Northeast 442 509 37,000  Level Indianapolis Center
07:56AM 38.1878 -87.7147 33° Northeast 438 504 37,000  Level Indianapolis Center
07:57AM 38.2947 -87.6294 32° Northeast 446 513 37,000  Level Indianapolis Center
07:58AM 38.4017 -87.5439 32° Northeast 448 516 37,000  Level Indianapolis Center
07:59AM 38.5078 -87.4550 33° Northeast 450 518 37,000  Level Indianapolis Center
08:00AM 38.6161 -87.3681 32° Northeast 451 519 37,000  Level Indianapolis Center
08:01AM 38.7228 -87.2803 33° Northeast 450 518 37,000  Level Indianapolis Center
08:02AM 38.8283 -87.1928 33° Northeast 447 514 37,000  Level Indianapolis Center
08:03AM 38.9328 -87.1075 32° Northeast 444 511 37,000  Level Indianapolis Center
08:04AM 39.0353 -87.0219 33° Northeast 436 502 37,000  Level Indianapolis Center
08:05AM 39.1481 -86.9289 33° Northeast 433 498 37,000  Level Indianapolis Center
08:06AM 39.2517 -86.8425 33° Northeast 439 505 37,000 -341 Level Indianapolis Center
08:07AM 39.3542 -86.7581 32° Northeast 436 502 36,300 -488 Descending Indianapolis Center
08:08AM 39.4561 -86.6706 34° Northeast 436 502 36,000 -780 Descending Indianapolis Center
08:09AM 39.5636 -86.5811 33° Northeast 454 522 34,700 -1,268 Descending Indianapolis Center
08:10AM 39.6711 -86.4897 33° Northeast 456 525 33,400 -829 Descending Indianapolis Center
08:11AM 39.7806 -86.3972 33° Northeast 455 524 33,000 -197 Descending Indianapolis Center
08:12AM 39.8889 -86.2933 36° Northeast 465 535 33,000  Level Chicago Center
08:13AM 39.9928 -86.1900 37° Northeast 464 534 33,000  Level Chicago Center
08:14AM 40.0958 -86.0883 37° Northeast 463 533 33,000 -387 Level Indianapolis Center
08:15AM 40.2072 -86.0342 20° North 424 488 32,200 -878 Descending Indianapolis Center
08:16AM 40.3164 -85.9847 19° North 414 476 31,200 -1,024 Descending Indianapolis Center
08:17AM 40.4264 -85.9372 18° North 413 475 30,100 -1,065 Descending Chicago Center
08:18AM 40.5525 -85.8692 22° Northeast 424 488 29,000 -1,024 Descending Chicago Center
08:19AM 40.6403 -85.7372 49° Northeast 472 543 28,000 -878 Descending Chicago Center
08:20AM 40.7167 -85.6153 50° Northeast 483 556 27,200 -1,258 Descending Chicago Center
08:21AM 40.8006 -85.4789 51° Northeast 482 555 25,400 -1,935 Descending Chicago Center
08:22AM 40.8997 -85.3186 51° Northeast 468 539 23,200 -1,561 Descending Chicago Center
08:24AM 40.9803 -85.1856 51° Northeast 467 537 22,200 -976 Descending Chicago Center
08:25AM 41.0758 -85.0847 38° Northeast 444 511 21,200 -581 Descending Chicago Center
08:26AM 41.1694 -84.9833 39° Northeast 439 505 21,000 -97 Descending Chicago Center
08:27AM 41.2639 -84.8828 39° Northeast 438 504 21,000  Level Chicago Center
08:28AM 41.3758 -84.7611 39° Northeast 438 504 21,000  Level Chicago Center
08:29AM 41.4597 -84.6450 46° Northeast 439 505 21,000 -242 Level Chicago Center
08:30AM 41.5364 -84.5169 51° Northeast 444 511 20,500 -1,452 Descending Chicago Center
08:31AM 41.6133 -84.3928 50° Northeast 437 503 18,000 -2,177 Descending Chicago Center
08:32AM 41.6856 -84.2750 51° Northeast 419 482 16,000 -2,194 Descending Chicago Center
08:32AM 41.7278 -84.2031 52° Northeast 389 448 14,600 -2,000 Descending Cleveland Center
08:33AM 41.7586 -84.1492 52° Northeast 393 452 13,800 -1,964 Descending Cleveland Center
08:33AM 41.7869 -84.1033 50° Northeast 366 421 12,800 -1,800 Descending Cleveland Center
08:34AM 41.8200 -84.0467 52° Northeast 372 428 12,000 -1,075 Descending Cleveland Center
08:34AM 41.8572 -83.9875 50° Northeast 353 406 11,600 -800 Descending Cleveland Center
08:35AM 41.8794 -83.9439 56° Northeast 358 412 11,200 -590 Descending Cleveland Center
08:35AM 41.9164 -83.8872 49° Northeast 351 404 11,000 -200 Descending Cleveland Center
08:36AM 41.9447 -83.8467 47° Northeast 348 400 11,000  Level Cleveland Center
08:36AM 41.9900 -83.7961 40° Northeast 349 402 11,000  Level Cleveland Center
08:37AM 42.0161 -83.7611 45° Northeast 342 394 11,000  Level Cleveland Center
08:37AM 42.0525 -83.7181 41° Northeast 277 319 11,000  Level Cleveland Center
08:38AM 42.0742 -83.6883 46° Northeast 315 362 11,000  Level Cleveland Center
08:38AM 42.1044 -83.6478 45° Northeast 234 269 11,000  Level Cleveland Center
08:39AM 42.1197 -83.6289 43° Northeast 263 303 11,000  Level Cleveland Center
08:39AM 42.1475 -83.5967 41° Northeast 239 275 11,000  Level Cleveland Center
08:40AM 42.1694 -83.5586 52° Northeast 234 269 11,000  Level Cleveland Center
08:40AM 42.1953 -83.5317 38° Northeast 240 276 11,000  Level Cleveland Center
08:41AM 42.2231 -83.4967 43° Northeast 234 269 11,000 -295 Level Cleveland Center
08:41AM 42.2486 -83.4808 25° Northeast 226 260 10,700 -1,100 Descending Cleveland Center
08:42AM 42.2783 -83.4597 28° Northeast 229 264 9,900 -1,574 Descending Cleveland Center
08:42AM 42.3100 -83.4472 16° North 225 259 9,100 -1,485 Descending Cleveland Center
08:43AM 42.3753 -83.4192 18° North 226 260 7,500 -1,488 Descending Cleveland Center
08:45AM 42.4261 -83.3792 30° Northeast 236 272 5,900 -1,436 Descending Cleveland Center
08:45AM 42.4136 -83.3000 102° East 235 270 4,700 -1,138 Descending Cleveland Center
08:46AM 42.3572 -83.2975 178° South 185 213 3,700 -1,031 Descending Cleveland Center
08:48AM 42.3028 -83.3119 191° South 177 204 2,500 -984 Descending Cleveland Center
08:49AM 42.2644 -83.3414 210° Southwest 131 151 1,600 -885 Descending Cleveland Center